Private Wetterstation Sandau
Wetterdaten: Montag, 16.01.2012
Datum Zeit Temp. A. Feuchte A. Luftdruck Regen Wind Richtung Richtung Taupunkt Windchill
16.01.2012 00:02 0,8 C 82 % 1028,1 hPa 0,0 l/m 1,4 km/h (1 Bft) W-SW 247 -1,9 C 0,8 C
16.01.2012 00:07 0,8 C 82 % 1027,9 hPa 0,0 l/m 0,0 km/h (0 Bft) W 270 -1,9 C 0,8 C
16.01.2012 00:12 0,8 C 82 % 1027,9 hPa 0,0 l/m 1,8 km/h (1 Bft) W 270 -1,9 C 0,8 C
16.01.2012 00:17 0,8 C 82 % 1028,0 hPa 0,0 l/m 4,0 km/h (1 Bft) W-NW 292 -1,9 C 0,8 C
16.01.2012 00:22 0,8 C 82 % 1027,8 hPa 0,0 l/m 2,9 km/h (1 Bft) W-NW 292 -1,9 C 0,8 C
16.01.2012 00:27 0,8 C 82 % 1027,9 hPa 0,0 l/m 0,0 km/h (0 Bft) W 270 -1,9 C 0,8 C
16.01.2012 00:32 0,8 C 82 % 1027,9 hPa 0,0 l/m 0,0 km/h (0 Bft) W 270 -1,9 C 0,8 C
16.01.2012 00:37 0,8 C 82 % 1027,9 hPa 0,0 l/m 0,0 km/h (0 Bft) W 270 -1,9 C 0,8 C
16.01.2012 00:42 0,8 C 82 % 1027,7 hPa 0,0 l/m 0,0 km/h (0 Bft) SW 225 -1,9 C 0,8 C
16.01.2012 00:47 0,8 C 82 % 1027,9 hPa 0,0 l/m 2,5 km/h (1 Bft) W-SW 247 -1,9 C 0,8 C
16.01.2012 00:52 0,8 C 82 % 1027,8 hPa 0,0 l/m 3,2 km/h (1 Bft) W-SW 247 -1,9 C 0,8 C
16.01.2012 00:57 0,8 C 82 % 1028,0 hPa 0,0 l/m 2,2 km/h (1 Bft) W-SW 247 -1,9 C 0,8 C
16.01.2012 01:02 0,7 C 82 % 1027,8 hPa 0,0 l/m 2,9 km/h (1 Bft) W-SW 247 -2,0 C 0,7 C
16.01.2012 01:07 0,7 C 82 % 1027,9 hPa 0,0 l/m 4,7 km/h (1 Bft) SW 225 -2,0 C -0,7 C
16.01.2012 01:12 0,7 C 82 % 1027,9 hPa 0,0 l/m 3,2 km/h (1 Bft) W-SW 247 -2,0 C 0,7 C
16.01.2012 01:17 0,6 C 82 % 1027,9 hPa 0,0 l/m 4,3 km/h (1 Bft) W-SW 247 -2,1 C 0,6 C
16.01.2012 01:22 0,6 C 82 % 1027,8 hPa 0,0 l/m 3,6 km/h (1 Bft) W-SW 247 -2,1 C 0,6 C
16.01.2012 01:27 0,6 C 82 % 1027,6 hPa 0,0 l/m 1,1 km/h (1 Bft) W-NW 292 -2,1 C 0,6 C
16.01.2012 01:32 0,5 C 82 % 1027,7 hPa 0,0 l/m 1,8 km/h (1 Bft) W-NW 292 -2,2 C 0,5 C
16.01.2012 01:37 0,5 C 82 % 1027,7 hPa 0,0 l/m 0,0 km/h (0 Bft) W-SW 247 -2,2 C 0,5 C
16.01.2012 01:42 0,5 C 82 % 1027,8 hPa 0,0 l/m 2,9 km/h (1 Bft) W-SW 247 -2,2 C 0,5 C
16.01.2012 01:47 0,5 C 83 % 1027,8 hPa 0,0 l/m 3,2 km/h (1 Bft) W-NW 292 -2,0 C 0,5 C
16.01.2012 01:52 0,5 C 83 % 1027,5 hPa 0,0 l/m 2,2 km/h (1 Bft) W-SW 247 -2,0 C 0,5 C
16.01.2012 01:57 0,4 C 83 % 1027,7 hPa 0,0 l/m 2,9 km/h (1 Bft) W 270 -2,1 C 0,4 C
16.01.2012 02:02 0,4 C 83 % 1027,8 hPa 0,0 l/m 2,5 km/h (1 Bft) W 270 -2,1 C 0,4 C
16.01.2012 02:07 0,4 C 83 % 1027,8 hPa 0,0 l/m 1,8 km/h (1 Bft) W 270 -2,1 C 0,4 C
16.01.2012 02:12 0,4 C 83 % 1027,9 hPa 0,0 l/m 0,0 km/h (0 Bft) W-SW 247 -2,1 C 0,4 C
16.01.2012 02:17 0,4 C 83 % 1027,9 hPa 0,0 l/m 4,7 km/h (1 Bft) W-SW 247 -2,1 C -1,0 C
16.01.2012 02:22 0,4 C 83 % 1027,7 hPa 0,0 l/m 2,9 km/h (1 Bft) W 270 -2,1 C 0,4 C
16.01.2012 02:27 0,4 C 84 % 1027,8 hPa 0,0 l/m 3,2 km/h (1 Bft) W-NW 292 -2,0 C 0,4 C
16.01.2012 02:32 0,4 C 84 % 1027,6 hPa 0,0 l/m 2,2 km/h (1 Bft) W-NW 292 -2,0 C 0,4 C
16.01.2012 02:37 0,4 C 84 % 1027,7 hPa 0,0 l/m 1,4 km/h (1 Bft) W-SW 247 -2,0 C 0,4 C
16.01.2012 02:42 0,3 C 84 % 1027,7 hPa 0,0 l/m 0,0 km/h (0 Bft) W 270 -2,1 C 0,3 C
16.01.2012 02:47 0,3 C 84 % 1027,8 hPa 0,0 l/m 4,3 km/h (1 Bft) W-NW 292 -2,1 C 0,3 C
16.01.2012 02:52 0,3 C 84 % 1027,7 hPa 0,0 l/m 2,2 km/h (1 Bft) W 270 -2,1 C 0,3 C
16.01.2012 02:57 0,2 C 84 % 1027,5 hPa 0,0 l/m 3,6 km/h (1 Bft) W 270 -2,2 C 0,2 C
16.01.2012 03:02 0,2 C 84 % 1027,5 hPa 0,0 l/m 0,0 km/h (0 Bft) W 270 -2,2 C 0,2 C
16.01.2012 03:07 0,2 C 84 % 1027,7 hPa 0,0 l/m 4,0 km/h (1 Bft) W 270 -2,2 C 0,2 C
16.01.2012 03:12 0,1 C 84 % 1027,6 hPa 0,0 l/m 0,0 km/h (0 Bft) W 270 -2,3 C 0,1 C
16.01.2012 03:17 0,1 C 85 % 1027,6 hPa 0,0 l/m 0,0 km/h (0 Bft) W-SW 247 -2,1 C 0,1 C
16.01.2012 03:22 0,1 C 85 % 1027,7 hPa 0,0 l/m 2,5 km/h (1 Bft) W-SW 247 -2,1 C 0,1 C
16.01.2012 03:27 0,1 C 85 % 1027,6 hPa 0,0 l/m 2,5 km/h (1 Bft) W-SW 247 -2,1 C 0,1 C
16.01.2012 03:32 0,1 C 85 % 1027,6 hPa 0,0 l/m 4,3 km/h (1 Bft) W-SW 247 -2,1 C 0,1 C
16.01.2012 03:37 0,1 C 85 % 1027,4 hPa 0,0 l/m 0,0 km/h (0 Bft) NW 315 -2,1 C 0,1 C
16.01.2012 03:42 0,1 C 85 % 1027,3 hPa 0,0 l/m 6,1 km/h (2 Bft) W 270 -2,1 C -1,9 C
16.01.2012 03:47 0,1 C 85 % 1027,4 hPa 0,0 l/m 2,5 km/h (1 Bft) W-NW 292 -2,1 C 0,1 C
16.01.2012 03:52 0,1 C 85 % 1027,4 hPa 0,0 l/m 5,4 km/h (1 Bft) W-SW 247 -2,1 C -1,7 C
16.01.2012 03:57 0,1 C 86 % 1027,3 hPa 0,0 l/m 0,0 km/h (0 Bft) W 270 -2,0 C 0,1 C
16.01.2012 04:02 0,1 C 86 % 1027,3 hPa 0,0 l/m 4,7 km/h (1 Bft) SW 225 -2,0 C -1,3 C
16.01.2012 04:07 0,1 C 86 % 1027,3 hPa 0,0 l/m 3,6 km/h (1 Bft) W 270 -2,0 C 0,1 C
16.01.2012 04:12 0,2 C 86 % 1027,3 hPa 0,0 l/m 7,2 km/h (2 Bft) W-SW 247 -1,9 C -2,2 C
16.01.2012 04:17 0,2 C 86 % 1027,4 hPa 0,0 l/m 0,0 km/h (0 Bft) W 270 -1,9 C 0,2 C
16.01.2012 04:22 0,2 C 86 % 1027,3 hPa 0,0 l/m 4,0 km/h (1 Bft) W 270 -1,9 C 0,2 C
16.01.2012 04:27 0,2 C 86 % 1027,4 hPa 0,0 l/m 0,0 km/h (0 Bft) W-SW 247 -1,9 C 0,2 C
16.01.2012 04:32 0,3 C 86 % 1027,3 hPa 0,0 l/m 3,6 km/h (1 Bft) W 270 -1,8 C 0,3 C
16.01.2012 04:37 0,3 C 86 % 1027,3 hPa 0,0 l/m 0,0 km/h (0 Bft) NW 315 -1,8 C 0,3 C
16.01.2012 04:42 0,3 C 86 % 1027,3 hPa 0,0 l/m 0,0 km/h (0 Bft) W 270 -1,8 C 0,3 C
16.01.2012 04:47 0,3 C 86 % 1027,3 hPa 0,0 l/m 0,0 km/h (0 Bft) SW 225 -1,8 C 0,3 C
16.01.2012 04:52 0,3 C 86 % 1027,2 hPa 0,0 l/m 4,0 km/h (1 Bft) W-SW 247 -1,8 C 0,3 C
16.01.2012 04:57 0,3 C 86 % 1027,1 hPa 0,0 l/m 5,8 km/h (2 Bft) W 270 -1,8 C -1,6 C
16.01.2012 05:02 0,3 C 86 % 1027,1 hPa 0,0 l/m 1,1 km/h (1 Bft) W-NW 292 -1,8 C 0,3 C
16.01.2012 05:07 0,3 C 86 % 1027,2 hPa 0,0 l/m 3,2 km/h (1 Bft) W-NW 292 -1,8 C 0,3 C
16.01.2012 05:12 0,3 C 86 % 1027,1 hPa 0,0 l/m 5,0 km/h (1 Bft) W-NW 292 -1,8 C -1,2 C
16.01.2012 05:17 0,3 C 86 % 1027,0 hPa 0,0 l/m 3,6 km/h (1 Bft) W 270 -1,8 C 0,3 C
16.01.2012 05:22 0,2 C 86 % 1027,0 hPa 0,0 l/m 0,0 km/h (0 Bft) W 270 -1,9 C 0,2 C
16.01.2012 05:27 0,2 C 87 % 1027,2 hPa 0,0 l/m 3,2 km/h (1 Bft) W 270 -1,7 C 0,2 C
16.01.2012 05:32 0,2 C 87 % 1027,1 hPa 0,0 l/m 4,0 km/h (1 Bft) W-SW 247 -1,7 C 0,2 C
16.01.2012 05:37 0,3 C 87 % 1027,1 hPa 0,0 l/m 4,7 km/h (1 Bft) W-NW 292 -1,6 C -1,1 C
16.01.2012 05:42 0,3 C 87 % 1027,2 hPa 0,0 l/m 5,0 km/h (1 Bft) W 270 -1,6 C -1,2 C
16.01.2012 05:47 0,3 C 87 % 1026,9 hPa 0,0 l/m 6,5 km/h (2 Bft) W-SW 247 -1,6 C -1,9 C
16.01.2012 05:52 0,3 C 87 % 1027,0 hPa 0,0 l/m 0,0 km/h (0 Bft) W-SW 247 -1,6 C 0,3 C
16.01.2012 05:57 0,3 C 87 % 1027,1 hPa 0,0 l/m 4,0 km/h (1 Bft) W-NW 292 -1,6 C 0,3 C
16.01.2012 06:02 0,3 C 87 % 1027,0 hPa 0,0 l/m 4,7 km/h (1 Bft) W-NW 292 -1,6 C -1,1 C
16.01.2012 06:07 0,4 C 87 % 1027,0 hPa 0,0 l/m 4,0 km/h (1 Bft) W-SW 247 -1,5 C 0,4 C
16.01.2012 06:12 0,4 C 87 % 1026,9 hPa 0,0 l/m 3,2 km/h (1 Bft) W 270 -1,5 C 0,4 C
16.01.2012 06:17 0,4 C 87 % 1027,0 hPa 0,0 l/m 7,9 km/h (2 Bft) NW 315 -1,5 C -2,2 C
16.01.2012 06:22 0,4 C 87 % 1026,9 hPa 0,0 l/m 2,5 km/h (1 Bft) W 270 -1,5 C 0,4 C
16.01.2012 06:27 0,4 C 87 % 1026,9 hPa 0,0 l/m 3,6 km/h (1 Bft) W-SW 247 -1,5 C 0,4 C
16.01.2012 06:32 0,4 C 87 % 1026,9 hPa 0,0 l/m 5,4 km/h (1 Bft) W 270 -1,5 C -1,3 C
16.01.2012 06:37 0,4 C 87 % 1026,9 hPa 0,0 l/m 4,0 km/h (1 Bft) W 270 -1,5 C 0,4 C
16.01.2012 06:42 0,4 C 87 % 1026,9 hPa 0,0 l/m 3,2 km/h (1 Bft) W 270 -1,5 C 0,4 C
16.01.2012 06:47 0,4 C 87 % 1026,9 hPa 0,0 l/m 9,4 km/h (2 Bft) W-SW 247 -1,5 C -2,7 C
16.01.2012 06:52 0,5 C 87 % 1026,9 hPa 0,0 l/m 3,6 km/h (1 Bft) W-NW 292 -1,4 C 0,5 C
16.01.2012 06:57 0,4 C 87 % 1026,8 hPa 0,0 l/m 2,2 km/h (1 Bft) W 270 -1,5 C 0,4 C
16.01.2012 07:02 0,5 C 87 % 1026,9 hPa 0,0 l/m 1,1 km/h (1 Bft) W 270 -1,4 C 0,5 C
16.01.2012 07:07 0,5 C 87 % 1026,9 hPa 0,0 l/m 5,8 km/h (2 Bft) SW 225 -1,4 C -1,4 C
16.01.2012 07:12 0,5 C 87 % 1026,8 hPa 0,0 l/m 2,5 km/h (1 Bft) W 270 -1,4 C 0,5 C
16.01.2012 07:17 0,5 C 87 % 1026,7 hPa 0,0 l/m 3,6 km/h (1 Bft) W 270 -1,4 C 0,5 C
16.01.2012 07:22 0,5 C 87 % 1026,8 hPa 0,0 l/m 2,2 km/h (1 Bft) W 270 -1,4 C 0,5 C
16.01.2012 07:27 0,5 C 87 % 1027,0 hPa 0,0 l/m 5,0 km/h (1 Bft) W-SW 247 -1,4 C -1,0 C
16.01.2012 07:32 0,5 C 87 % 1026,8 hPa 0,0 l/m 5,0 km/h (1 Bft) W-SW 247 -1,4 C -1,0 C
16.01.2012 07:37 0,5 C 87 % 1026,8 hPa 0,0 l/m 4,0 km/h (1 Bft) W-SW 247 -1,4 C 0,5 C
16.01.2012 07:42 0,5 C 87 % 1026,8 hPa 0,0 l/m 1,8 km/h (1 Bft) W-NW 292 -1,4 C 0,5 C
16.01.2012 07:47 0,6 C 87 % 1026,9 hPa 0,0 l/m 4,7 km/h (1 Bft) W-SW 247 -1,3 C -0,8 C
16.01.2012 07:52 0,6 C 87 % 1026,9 hPa 0,0 l/m 8,3 km/h (2 Bft) W-NW 292 -1,3 C -2,1 C
16.01.2012 07:57 0,6 C 87 % 1026,9 hPa 0,0 l/m 10,1 km/h (2 Bft) W 270 -1,3 C -2,6 C
16.01.2012 08:02 0,6 C 87 % 1026,9 hPa 0,0 l/m 10,4 km/h (2 Bft) W-SW 247 -1,3 C -2,7 C
16.01.2012 08:07 0,6 C 87 % 1026,8 hPa 0,0 l/m 6,8 km/h (2 Bft) W-SW 247 -1,3 C -1,6 C
16.01.2012 08:12 0,7 C 87 % 1027,1 hPa 0,0 l/m 2,9 km/h (1 Bft) W-NW 292 -1,2 C 0,7 C
16.01.2012 08:17 0,8 C 87 % 1027,0 hPa 0,0 l/m 7,2 km/h (2 Bft) W-SW 247 -1,1 C -1,5 C
16.01.2012 08:22 0,8 C 87 % 1026,9 hPa 0,0 l/m 0,0 km/h (0 Bft) W-SW 247 -1,1 C 0,8 C
16.01.2012 08:27 0,8 C 87 % 1027,0 hPa 0,0 l/m 2,5 km/h (1 Bft) SW 225 -1,1 C 0,8 C
16.01.2012 08:32 0,9 C 87 % 1027,0 hPa 0,0 l/m 4,7 km/h (1 Bft) W-SW 247 -1,0 C -0,4 C
16.01.2012 08:37 0,9 C 87 % 1026,9 hPa 0,0 l/m 2,2 km/h (1 Bft) SW 225 -1,0 C 0,9 C
16.01.2012 08:42 0,9 C 87 % 1026,9 hPa 0,0 l/m 2,5 km/h (1 Bft) W-NW 292 -1,0 C 0,9 C
16.01.2012 08:47 0,9 C 87 % 1027,0 hPa 0,0 l/m 2,5 km/h (1 Bft) W-NW 292 -1,0 C 0,9 C
16.01.2012 08:52 0,9 C 87 % 1026,8 hPa 0,0 l/m 4,0 km/h (1 Bft) W 270 -1,0 C 0,9 C
16.01.2012 08:57 0,9 C 88 % 1026,9 hPa 0,0 l/m 4,0 km/h (1 Bft) W 270 -0,9 C 0,9 C
16.01.2012 09:02 0,9 C 88 % 1027,0 hPa 0,0 l/m 3,6 km/h (1 Bft) W-NW 292 -0,9 C 0,9 C
16.01.2012 09:07 0,9 C 88 % 1027,1 hPa 0,0 l/m 6,8 km/h (2 Bft) W-NW 292 -0,9 C -1,3 C
16.01.2012 09:12 1,0 C 88 % 1027,1 hPa 0,0 l/m 3,2 km/h (1 Bft) W 270 -0,8 C 1,0 C
16.01.2012 09:17 1,1 C 88 % 1026,9 hPa 0,0 l/m 5,0 km/h (1 Bft) W 270 -0,7 C -0,3 C
16.01.2012 09:22 1,1 C 88 % 1027,1 hPa 0,0 l/m 2,2 km/h (1 Bft) W-NW 292 -0,7 C 1,1 C
16.01.2012 09:27 1,1 C 88 % 1027,0 hPa 0,0 l/m 5,0 km/h (1 Bft) W-SW 247 -0,7 C -0,3 C
16.01.2012 09:32 1,1 C 88 % 1027,0 hPa 0,0 l/m 4,3 km/h (1 Bft) W 270 -0,7 C 1,1 C
16.01.2012 09:37 1,2 C 88 % 1027,0 hPa 0,0 l/m 5,8 km/h (2 Bft) W-NW 292 -0,6 C -0,6 C
16.01.2012 09:42 1,3 C 88 % 1026,9 hPa 0,0 l/m 6,5 km/h (2 Bft) W-NW 292 -0,5 C -0,7 C
16.01.2012 09:47 1,3 C 88 % 1026,9 hPa 0,0 l/m 5,8 km/h (2 Bft) W 270 -0,5 C -0,5 C
16.01.2012 09:52 1,3 C 89 % 1027,1 hPa 0,0 l/m 5,8 km/h (2 Bft) W 270 -0,3 C -0,5 C
16.01.2012 09:57 1,3 C 89 % 1027,0 hPa 0,0 l/m 7,2 km/h (2 Bft) NW 315 -0,3 C -1,0 C
16.01.2012 10:02 1,3 C 89 % 1027,2 hPa 0,0 l/m 9,4 km/h (2 Bft) W-NW 292 -0,3 C -1,6 C
16.01.2012 10:07 1,3 C 89 % 1027,3 hPa 0,0 l/m 5,4 km/h (1 Bft) NW 315 -0,3 C -0,3 C
16.01.2012 10:12 1,4 C 89 % 1027,2 hPa 0,0 l/m 5,8 km/h (2 Bft) W 270 -0,2 C -0,3 C
16.01.2012 10:17 1,5 C 89 % 1027,2 hPa 0,0 l/m 8,3 km/h (2 Bft) W-NW 292 -0,1 C -1,1 C
16.01.2012 10:22 1,6 C 89 % 1027,3 hPa 0,0 l/m 5,8 km/h (2 Bft) W 270 -0,0 C -0,1 C
16.01.2012 10:27 1,6 C 89 % 1027,2 hPa 0,0 l/m 9,0 km/h (2 Bft) NW 315 -0,0 C -1,1 C
16.01.2012 10:32 1,8 C 89 % 1027,2 hPa 0,0 l/m 6,8 km/h (2 Bft) W-NW 292 0,2 C -0,2 C
16.01.2012 10:37 1,8 C 89 % 1027,2 hPa 0,0 l/m 8,6 km/h (2 Bft) W 270 0,2 C -0,8 C
16.01.2012 10:42 1,8 C 89 % 1027,3 hPa 0,0 l/m 6,8 km/h (2 Bft) W 270 0,2 C -0,2 C
16.01.2012 10:47 1,9 C 89 % 1027,2 hPa 0,0 l/m 4,7 km/h (1 Bft) W-NW 292 0,3 C 0,7 C
16.01.2012 10:52 1,9 C 89 % 1027,3 hPa 0,0 l/m 6,5 km/h (2 Bft) W-NW 292 0,3 C -0,0 C
16.01.2012 10:57 1,9 C 89 % 1027,4 hPa 0,0 l/m 8,3 km/h (2 Bft) W 270 0,3 C -0,6 C
16.01.2012 11:02 1,9 C 89 % 1027,3 hPa 0,0 l/m 8,3 km/h (2 Bft) NW 315 0,3 C -0,6 C
16.01.2012 11:07 2,1 C 89 % 1027,2 hPa 0,0 l/m 4,0 km/h (1 Bft) W-NW 292 0,5 C 2,1 C
16.01.2012 11:12 2,1 C 89 % 1027,3 hPa 0,0 l/m 3,2 km/h (1 Bft) W-NW 292 0,5 C 2,1 C
16.01.2012 11:17 2,1 C 89 % 1027,3 hPa 0,0 l/m 3,6 km/h (1 Bft) W-NW 292 0,5 C 2,1 C
16.01.2012 11:22 2,2 C 89 % 1027,3 hPa 0,0 l/m 4,7 km/h (1 Bft) W 270 0,6 C 1,0 C
16.01.2012 11:27 2,2 C 89 % 1027,3 hPa 0,0 l/m 6,1 km/h (2 Bft) W-NW 292 0,6 C 0,5 C
16.01.2012 11:32 2,2 C 89 % 1027,2 hPa 0,0 l/m 5,4 km/h (1 Bft) W-NW 292 0,6 C 0,7 C
16.01.2012 11:37 2,3 C 89 % 1027,3 hPa 0,0 l/m 9,7 km/h (2 Bft) W 270 0,7 C -0,5 C
16.01.2012 11:42 2,3 C 89 % 1027,2 hPa 0,0 l/m 5,4 km/h (1 Bft) W 270 0,7 C 0,9 C
16.01.2012 11:47 2,4 C 89 % 1027,3 hPa 0,0 l/m 8,6 km/h (2 Bft) W-NW 292 0,8 C -0,1 C
16.01.2012 11:52 2,4 C 89 % 1027,2 hPa 0,0 l/m 6,8 km/h (2 Bft) W-NW 292 0,8 C 0,5 C
16.01.2012 11:57 2,4 C 89 % 1027,2 hPa 0,0 l/m 4,0 km/h (1 Bft) W 270 0,8 C 2,4 C
16.01.2012 12:02 2,5 C 89 % 1027,2 hPa 0,0 l/m 6,1 km/h (2 Bft) W 270 0,9 C 0,8 C
16.01.2012 12:07 2,5 C 89 % 1027,0 hPa 0,0 l/m 7,2 km/h (2 Bft) W-NW 292 0,9 C 0,4 C
16.01.2012 12:12 2,6 C 90 % 1027,0 hPa 0,0 l/m 6,5 km/h (2 Bft) W-NW 292 1,1 C 0,8 C
16.01.2012 12:17 2,6 C 89 % 1027,1 hPa 0,0 l/m 6,1 km/h (2 Bft) W-NW 292 1,0 C 0,9 C
16.01.2012 12:22 2,6 C 89 % 1026,9 hPa 0,0 l/m 4,3 km/h (1 Bft) W-SW 247 1,0 C 2,6 C
16.01.2012 12:27 2,7 C 89 % 1026,9 hPa 0,0 l/m 5,0 km/h (1 Bft) N-NW 337 1,1 C 1,5 C
16.01.2012 12:32 2,7 C 89 % 1026,9 hPa 0,0 l/m 4,7 km/h (1 Bft) W-NW 292 1,1 C 1,6 C
16.01.2012 12:37 2,8 C 89 % 1026,9 hPa 0,0 l/m 8,3 km/h (2 Bft) W 270 1,2 C 0,5 C
16.01.2012 12:42 2,8 C 89 % 1026,8 hPa 0,0 l/m 4,3 km/h (1 Bft) W 270 1,2 C 2,8 C
16.01.2012 12:47 2,9 C 89 % 1026,9 hPa 0,0 l/m 12,2 km/h (2 Bft) W-NW 292 1,3 C -0,3 C
16.01.2012 12:52 2,9 C 89 % 1026,8 hPa 0,0 l/m 6,5 km/h (2 Bft) W-NW 292 1,3 C 1,1 C
16.01.2012 12:57 2,9 C 89 % 1026,7 hPa 0,0 l/m 12,6 km/h (3 Bft) W 270 1,3 C -0,4 C
16.01.2012 13:02 3,0 C 89 % 1026,8 hPa 0,0 l/m 9,7 km/h (2 Bft) W-NW 292 1,4 C 0,3 C
16.01.2012 13:07 3,0 C 89 % 1026,6 hPa 0,0 l/m 6,8 km/h (2 Bft) W-NW 292 1,4 C 1,1 C
16.01.2012 13:12 3,1 C 89 % 1026,6 hPa 0,0 l/m 3,2 km/h (1 Bft) W-NW 292 1,5 C 3,1 C
16.01.2012 13:17 3,1 C 89 % 1026,5 hPa 0,0 l/m 7,6 km/h (2 Bft) W-NW 292 1,5 C 1,0 C
16.01.2012 13:22 3,2 C 89 % 1026,5 hPa 0,0 l/m 5,8 km/h (2 Bft) W-NW 292 1,6 C 1,7 C
16.01.2012 13:27 3,2 C 89 % 1026,6 hPa 0,0 l/m 9,0 km/h (2 Bft) W-NW 292 1,6 C 0,8 C
16.01.2012 13:32 3,3 C 89 % 1026,6 hPa 0,0 l/m 7,6 km/h (2 Bft) W 270 1,7 C 1,3 C
16.01.2012 13:37 3,2 C 89 % 1026,5 hPa 0,0 l/m 10,8 km/h (2 Bft) W-NW 292 1,6 C 0,3 C
16.01.2012 13:42 3,3 C 89 % 1026,4 hPa 0,0 l/m 6,1 km/h (2 Bft) W 270 1,7 C 1,7 C
16.01.2012 13:47 3,2 C 89 % 1026,3 hPa 0,0 l/m 6,8 km/h (2 Bft) W 270 1,6 C 1,4 C
16.01.2012 13:52 3,2 C 89 % 1026,6 hPa 0,0 l/m 5,8 km/h (2 Bft) W-NW 292 1,6 C 1,7 C
16.01.2012 13:57 3,2 C 88 % 1026,5 hPa 0,0 l/m 6,1 km/h (2 Bft) NW 315 1,4 C 1,6 C
16.01.2012 14:02 3,2 C 89 % 1026,6 hPa 0,0 l/m 8,3 km/h (2 Bft) W-NW 292 1,6 C 0,9 C
16.01.2012 14:07 3,2 C 89 % 1026,5 hPa 0,0 l/m 12,6 km/h (3 Bft) NW 315 1,6 C -0,0 C
16.01.2012 14:12 3,3 C 89 % 1026,3 hPa 0,0 l/m 6,8 km/h (2 Bft) W 270 1,7 C 1,5 C
16.01.2012 14:17 3,3 C 89 % 1026,4 hPa 0,0 l/m 7,9 km/h (2 Bft) W 270 1,7 C 1,2 C
16.01.2012 14:22 3,3 C 89 % 1026,4 hPa 0,0 l/m 7,6 km/h (2 Bft) NW 315 1,7 C 1,3 C
16.01.2012 14:27 3,3 C 89 % 1026,5 hPa 0,0 l/m 4,7 km/h (1 Bft) NW 315 1,7 C 2,3 C
16.01.2012 14:32 3,3 C 89 % 1026,4 hPa 0,0 l/m 5,0 km/h (1 Bft) W-NW 292 1,7 C 2,2 C
16.01.2012 14:37 3,3 C 89 % 1026,4 hPa 0,0 l/m 5,4 km/h (1 Bft) W-NW 292 1,7 C 2,0 C
16.01.2012 14:42 3,3 C 89 % 1026,4 hPa 0,0 l/m 4,0 km/h (1 Bft) W 270 1,7 C 3,3 C
16.01.2012 14:47 3,3 C 89 % 1026,5 hPa 0,0 l/m 10,1 km/h (2 Bft) W-NW 292 1,7 C 0,6 C
16.01.2012 14:52 3,3 C 89 % 1026,3 hPa 0,0 l/m 6,1 km/h (2 Bft) W-NW 292 1,7 C 1,7 C
16.01.2012 14:57 3,4 C 89 % 1026,4 hPa 0,0 l/m 14,4 km/h (3 Bft) W-NW 292 1,8 C -0,1 C
16.01.2012 15:02 3,4 C 89 % 1026,4 hPa 0,0 l/m 7,2 km/h (2 Bft) W 270 1,8 C 1,5 C
16.01.2012 15:07 3,4 C 89 % 1026,4 hPa 0,0 l/m 7,9 km/h (2 Bft) W 270 1,8 C 1,3 C
16.01.2012 15:12 3,4 C 89 % 1026,4 hPa 0,0 l/m 11,2 km/h (2 Bft) W-NW 292 1,8 C 0,5 C
16.01.2012 15:17 3,4 C 89 % 1026,3 hPa 0,0 l/m 6,1 km/h (2 Bft) W-NW 292 1,8 C 1,8 C
16.01.2012 15:22 3,4 C 89 % 1026,3 hPa 0,0 l/m 10,1 km/h (2 Bft) W-NW 292 1,8 C 0,7 C
16.01.2012 15:27 3,4 C 89 % 1026,4 hPa 0,0 l/m 7,9 km/h (2 Bft) NW 315 1,8 C 1,3 C
16.01.2012 15:32 3,4 C 89 % 1026,2 hPa 0,0 l/m 8,6 km/h (2 Bft) W 270 1,8 C 1,1 C
16.01.2012 15:37 3,4 C 89 % 1026,3 hPa 0,0 l/m 5,8 km/h (2 Bft) W 270 1,8 C 2,0 C
16.01.2012 15:42 3,4 C 89 % 1026,4 hPa 0,0 l/m 6,8 km/h (2 Bft) W-NW 292 1,8 C 1,6 C
16.01.2012 15:47 3,4 C 89 % 1026,4 hPa 0,0 l/m 7,2 km/h (2 Bft) NW 315 1,8 C 1,5 C
16.01.2012 15:52 3,3 C 89 % 1026,5 hPa 0,0 l/m 6,1 km/h (2 Bft) W 270 1,7 C 1,7 C
16.01.2012 15:57 3,3 C 89 % 1026,5 hPa 0,0 l/m 9,4 km/h (2 Bft) W-NW 292 1,7 C 0,8 C
16.01.2012 16:02 3,3 C 89 % 1026,5 hPa 0,0 l/m 15,5 km/h (3 Bft) W-NW 292 1,7 C -0,4 C
16.01.2012 16:07 3,3 C 89 % 1026,5 hPa 0,0 l/m 6,5 km/h (2 Bft) W-NW 292 1,7 C 1,6 C
16.01.2012 16:12 3,3 C 89 % 1026,5 hPa 0,0 l/m 8,3 km/h (2 Bft) W-NW 292 1,7 C 1,1 C
16.01.2012 16:17 3,3 C 89 % 1026,8 hPa 0,0 l/m 5,4 km/h (1 Bft) W-NW 292 1,7 C 2,0 C
16.01.2012 16:22 3,3 C 90 % 1026,7 hPa 0,0 l/m 9,0 km/h (2 Bft) W 270 1,8 C 0,9 C
16.01.2012 16:27 3,3 C 90 % 1026,8 hPa 0,0 l/m 7,2 km/h (2 Bft) W 270 1,8 C 1,4 C
16.01.2012 16:32 3,3 C 90 % 1026,7 hPa 0,0 l/m 3,6 km/h (1 Bft) W 270 1,8 C 3,3 C
16.01.2012 16:37 3,3 C 90 % 1026,6 hPa 0,0 l/m 13,0 km/h (3 Bft) W-NW 292 1,8 C 0,0 C
16.01.2012 16:42 3,3 C 90 % 1026,6 hPa 0,0 l/m 4,0 km/h (1 Bft) W-NW 292 1,8 C 3,3 C
16.01.2012 16:47 3,3 C 90 % 1026,6 hPa 0,0 l/m 8,3 km/h (2 Bft) W 270 1,8 C 1,1 C
16.01.2012 16:52 3,3 C 90 % 1026,5 hPa 0,0 l/m 4,0 km/h (1 Bft) W-NW 292 1,8 C 3,3 C
16.01.2012 16:57 3,3 C 90 % 1026,6 hPa 0,0 l/m 7,2 km/h (2 Bft) W 270 1,8 C 1,4 C
16.01.2012 17:02 3,3 C 90 % 1026,6 hPa 0,0 l/m 4,7 km/h (1 Bft) N-NW 337 1,8 C 2,3 C
16.01.2012 17:07 3,3 C 90 % 1026,6 hPa 0,0 l/m 10,8 km/h (2 Bft) W-NW 292 1,8 C 0,4 C
16.01.2012 17:12 3,3 C 90 % 1026,5 hPa 0,0 l/m 8,6 km/h (2 Bft) W-NW 292 1,8 C 1,0 C
16.01.2012 17:17 3,3 C 90 % 1026,6 hPa 0,0 l/m 13,7 km/h (3 Bft) W-NW 292 1,8 C -0,1 C
16.01.2012 17:22 3,3 C 90 % 1026,4 hPa 0,0 l/m 7,2 km/h (2 Bft) W-NW 292 1,8 C 1,4 C
16.01.2012 17:27 3,3 C 90 % 1026,5 hPa 0,0 l/m 14,8 km/h (3 Bft) W-NW 292 1,8 C -0,3 C
16.01.2012 17:32 3,3 C 90 % 1026,5 hPa 0,0 l/m 8,3 km/h (2 Bft) N-NW 337 1,8 C 1,1 C
16.01.2012 17:37 3,3 C 90 % 1026,5 hPa 0,0 l/m 10,8 km/h (2 Bft) N-NW 337 1,8 C 0,4 C
16.01.2012 17:42 3,3 C 90 % 1026,7 hPa 0,0 l/m 8,6 km/h (2 Bft) NW 315 1,8 C 1,0 C
16.01.2012 17:47 3,3 C 90 % 1026,7 hPa 0,0 l/m 5,0 km/h (1 Bft) W 270 1,8 C 2,2 C
16.01.2012 17:52 3,3 C 90 % 1026,6 hPa 0,0 l/m 5,0 km/h (1 Bft) W 270 1,8 C 2,2 C
16.01.2012 17:57 3,3 C 90 % 1026,7 hPa 0,0 l/m 14,4 km/h (3 Bft) W 270 1,8 C -0,2 C
16.01.2012 18:02 3,3 C 90 % 1026,7 hPa 0,0 l/m 7,6 km/h (2 Bft) W 270 1,8 C 1,3 C
16.01.2012 18:07 3,3 C 90 % 1026,7 hPa 0,0 l/m 8,3 km/h (2 Bft) W-NW 292 1,8 C 1,1 C
16.01.2012 18:12 3,3 C 90 % 1026,6 hPa 0,0 l/m 3,6 km/h (1 Bft) NW 315 1,8 C 3,3 C
16.01.2012 18:17 3,3 C 90 % 1026,6 hPa 0,0 l/m 6,8 km/h (2 Bft) W 270 1,8 C 1,5 C
16.01.2012 18:22 3,3 C 90 % 1026,6 hPa 0,0 l/m 8,3 km/h (2 Bft) W 270 1,8 C 1,1 C
16.01.2012 18:27 3,2 C 90 % 1026,7 hPa 0,0 l/m 6,1 km/h (2 Bft) W-NW 292 1,7 C 1,6 C
16.01.2012 18:32 3,2 C 90 % 1026,7 hPa 0,0 l/m 7,2 km/h (2 Bft) W-NW 292 1,7 C 1,3 C
16.01.2012 18:37 3,2 C 90 % 1026,7 hPa 0,0 l/m 6,8 km/h (2 Bft) W-NW 292 1,7 C 1,4 C
16.01.2012 18:42 3,2 C 90 % 1026,7 hPa 0,0 l/m 10,8 km/h (2 Bft) W 270 1,7 C 0,3 C
16.01.2012 18:47 3,2 C 90 % 1026,7 hPa 0,0 l/m 14,8 km/h (3 Bft) W-NW 292 1,7 C -0,4 C
16.01.2012 18:52 3,2 C 90 % 1026,7 hPa 0,0 l/m 5,0 km/h (1 Bft) NW 315 1,7 C 2,0 C
16.01.2012 18:57 3,2 C 90 % 1026,9 hPa 0,0 l/m 7,2 km/h (2 Bft) W 270 1,7 C 1,3 C
16.01.2012 19:02 3,2 C 90 % 1026,9 hPa 0,0 l/m 5,4 km/h (1 Bft) W-NW 292 1,7 C 1,9 C
16.01.2012 19:07 3,2 C 90 % 1026,9 hPa 0,0 l/m 7,2 km/h (2 Bft) W 270 1,7 C 1,3 C
16.01.2012 19:12 3,2 C 90 % 1026,9 hPa 0,0 l/m 6,1 km/h (2 Bft) W-NW 292 1,7 C 1,6 C
16.01.2012 19:17 3,2 C 90 % 1026,9 hPa 0,0 l/m 9,4 km/h (2 Bft) W 270 1,7 C 0,7 C
16.01.2012 19:22 3,2 C 90 % 1026,8 hPa 0,0 l/m 10,4 km/h (2 Bft) W 270 1,7 C 0,4 C
16.01.2012 19:27 3,2 C 90 % 1026,6 hPa 0,0 l/m 7,6 km/h (2 Bft) W 270 1,7 C 1,1 C
16.01.2012 19:32 3,2 C 90 % 1026,7 hPa 0,0 l/m 7,9 km/h (2 Bft) W-NW 292 1,7 C 1,0 C
16.01.2012 19:37 3,2 C 90 % 1026,7 hPa 0,0 l/m 8,6 km/h (2 Bft) W 270 1,7 C 0,9 C
16.01.2012 19:42 3,1 C 90 % 1026,8 hPa 0,0 l/m 9,7 km/h (2 Bft) NW 315 1,6 C 0,5 C
16.01.2012 19:47 3,1 C 90 % 1026,8 hPa 0,0 l/m 6,5 km/h (2 Bft) NW 315 1,6 C 1,4 C
16.01.2012 19:52 3,2 C 90 % 1027,0 hPa 0,0 l/m 7,6 km/h (2 Bft) W 270 1,7 C 1,1 C
16.01.2012 19:57 3,1 C 90 % 1026,9 hPa 0,0 l/m 7,6 km/h (2 Bft) W-NW 292 1,6 C 1,0 C
16.01.2012 20:02 3,1 C 90 % 1026,9 hPa 0,0 l/m 7,9 km/h (2 Bft) N-NW 337 1,6 C 0,9 C
16.01.2012 20:07 3,1 C 90 % 1026,9 hPa 0,0 l/m 6,5 km/h (2 Bft) N-NW 337 1,6 C 1,4 C
16.01.2012 20:12 3,1 C 90 % 1026,9 hPa 0,0 l/m 6,8 km/h (2 Bft) W 270 1,6 C 1,3 C
16.01.2012 20:17 3,1 C 90 % 1026,9 hPa 0,0 l/m 6,5 km/h (2 Bft) W-NW 292 1,6 C 1,4 C
16.01.2012 20:22 3,1 C 90 % 1026,9 hPa 0,0 l/m 7,2 km/h (2 Bft) W-NW 292 1,6 C 1,1 C
16.01.2012 20:27 3,1 C 90 % 1026,9 hPa 0,0 l/m 5,4 km/h (1 Bft) NW 315 1,6 C 1,8 C
16.01.2012 20:32 3,1 C 90 % 1026,9 hPa 0,0 l/m 10,1 km/h (2 Bft) NW 315 1,6 C 0,4 C
16.01.2012 20:37 3,2 C 90 % 1026,9 hPa 0,0 l/m 5,8 km/h (2 Bft) W 270 1,7 C 1,7 C
16.01.2012 20:42 3,2 C 90 % 1026,9 hPa 0,0 l/m 5,4 km/h (1 Bft) W-NW 292 1,7 C 1,9 C
16.01.2012 20:47 3,2 C 90 % 1026,8 hPa 0,0 l/m 10,8 km/h (2 Bft) W-NW 292 1,7 C 0,3 C
16.01.2012 20:52 3,2 C 90 % 1026,8 hPa 0,0 l/m 7,9 km/h (2 Bft) W 270 1,7 C 1,0 C
16.01.2012 20:57 3,2 C 90 % 1026,9 hPa 0,0 l/m 12,2 km/h (2 Bft) W-NW 292 1,7 C 0,0 C
16.01.2012 21:02 3,2 C 90 % 1026,9 hPa 0,0 l/m 7,6 km/h (2 Bft) W-NW 292 1,7 C 1,1 C
16.01.2012 21:07 3,2 C 90 % 1026,9 hPa 0,0 l/m 10,8 km/h (2 Bft) W-NW 292 1,7 C 0,3 C
16.01.2012 21:12 3,2 C 90 % 1026,9 hPa 0,0 l/m 9,4 km/h (2 Bft) W-NW 292 1,7 C 0,7 C
16.01.2012 21:17 3,2 C 90 % 1026,9 hPa 0,0 l/m 10,1 km/h (2 Bft) W-NW 292 1,7 C 0,5 C
16.01.2012 21:22 3,2 C 90 % 1026,9 hPa 0,0 l/m 7,2 km/h (2 Bft) W 270 1,7 C 1,3 C
16.01.2012 21:27 3,2 C 90 % 1026,9 hPa 0,0 l/m 8,3 km/h (2 Bft) W 270 1,7 C 0,9 C
16.01.2012 21:32 3,2 C 90 % 1026,8 hPa 0,0 l/m 10,4 km/h (2 Bft) W 270 1,7 C 0,4 C
16.01.2012 21:37 3,2 C 90 % 1026,8 hPa 0,0 l/m 11,5 km/h (2 Bft) W-NW 292 1,7 C 0,2 C
16.01.2012 21:42 3,2 C 90 % 1026,9 hPa 0,0 l/m 9,7 km/h (2 Bft) NW 315 1,7 C 0,6 C
16.01.2012 21:47 3,2 C 90 % 1026,9 hPa 0,0 l/m 8,3 km/h (2 Bft) W-NW 292 1,7 C 0,9 C
16.01.2012 21:52 3,2 C 91 % 1026,9 hPa 0,0 l/m 11,9 km/h (2 Bft) NW 315 1,9 C 0,1 C
16.01.2012 21:57 3,2 C 91 % 1026,9 hPa 0,0 l/m 15,5 km/h (3 Bft) W-NW 292 1,9 C -0,6 C
16.01.2012 22:02 3,1 C 91 % 1027,0 hPa 0,0 l/m 14,0 km/h (3 Bft) NW 315 1,8 C -0,4 C
16.01.2012 22:07 3,1 C 91 % 1026,9 hPa 0,0 l/m 8,6 km/h (2 Bft) W 270 1,8 C 0,7 C
16.01.2012 22:12 3,1 C 91 % 1027,0 hPa 0,0 l/m 12,2 km/h (2 Bft) NW 315 1,8 C -0,1 C
16.01.2012 22:17 3,1 C 91 % 1027,1 hPa 0,0 l/m 6,8 km/h (2 Bft) W-NW 292 1,8 C 1,3 C
16.01.2012 22:22 3,1 C 91 % 1026,9 hPa 0,0 l/m 10,4 km/h (2 Bft) W-NW 292 1,8 C 0,3 C
16.01.2012 22:27 3,1 C 91 % 1027,1 hPa 0,0 l/m 4,3 km/h (1 Bft) W-NW 292 1,8 C 3,1 C
16.01.2012 22:32 3,1 C 91 % 1027,0 hPa 0,0 l/m 7,6 km/h (2 Bft) W 270 1,8 C 1,0 C
16.01.2012 22:37 3,0 C 91 % 1026,9 hPa 0,0 l/m 5,8 km/h (2 Bft) NW 315 1,7 C 1,5 C
16.01.2012 22:42 3,1 C 91 % 1027,0 hPa 0,0 l/m 7,6 km/h (2 Bft) W 270 1,8 C 1,0 C
16.01.2012 22:47 3,0 C 91 % 1027,1 hPa 0,0 l/m 7,2 km/h (2 Bft) W-NW 292 1,7 C 1,0 C
16.01.2012 22:52 3,0 C 91 % 1026,9 hPa 0,0 l/m 6,5 km/h (2 Bft) W-NW 292 1,7 C 1,2 C
16.01.2012 22:57 3,0 C 91 % 1026,9 hPa 0,0 l/m 6,5 km/h (2 Bft) W-NW 292 1,7 C 1,2 C
16.01.2012 23:02 3,0 C 91 % 1026,9 hPa 0,0 l/m 11,2 km/h (2 Bft) W-NW 292 1,7 C -0,0 C
16.01.2012 23:07 3,0 C 91 % 1026,8 hPa 0,0 l/m 7,2 km/h (2 Bft) W-NW 292 1,7 C 1,0 C
16.01.2012 23:12 3,0 C 91 % 1026,9 hPa 0,0 l/m 3,6 km/h (1 Bft) W 270 1,7 C 3,0 C
16.01.2012 23:17 3,0 C 91 % 1026,9 hPa 0,0 l/m 9,0 km/h (2 Bft) W-NW 292 1,7 C 0,5 C
16.01.2012 23:22 3,0 C 91 % 1026,9 hPa 0,0 l/m 9,0 km/h (2 Bft) W-NW 292 1,7 C 0,5 C
16.01.2012 23:27 2,9 C 91 % 1027,0 hPa 0,0 l/m 16,9 km/h (3 Bft) W 270 1,6 C -1,1 C
16.01.2012 23:32 3,0 C 91 % 1027,0 hPa 0,0 l/m 9,0 km/h (2 Bft) W 270 1,7 C 0,5 C
16.01.2012 23:37 2,9 C 91 % 1026,9 hPa 0,0 l/m 18,4 km/h (3 Bft) W-NW 292 1,6 C -1,4 C
16.01.2012 23:42 2,9 C 91 % 1027,0 hPa 0,0 l/m 14,8 km/h (3 Bft) W-NW 292 1,6 C -0,8 C
16.01.2012 23:47 2,9 C 91 % 1026,9 hPa 0,0 l/m 8,3 km/h (2 Bft) W-NW 292 1,6 C 0,6 C
16.01.2012 23:52 2,9 C 91 % 1026,9 hPa 0,0 l/m 11,5 km/h (2 Bft) W-NW 292 1,6 C -0,2 C
16.01.2012 23:57 2,9 C 91 % 1026,9 hPa 0,0 l/m 10,8 km/h (2 Bft) W-NW 292 1,6 C -0,0 C
_ Min-Zeit 03:12 00:02 15:32 - 00:07 - - 03:12 08:02
Minimum _ 0,1 C 82 % 1026,2 hPa - 0,0 km/h (0 Bft) - - -2,3 C -2,7 C
_ Max-Zeit 14:57 21:52 00:02 00:02 23:37 - - 21:52 14:42
Maximum _ 3,4 C 91 % 1028,1 hPa 0,0 l/m 18,4 km/h
W-NW (3 Bft)
- - 1,9 C 3,3 C
Durchschnitt _ 2,0 C 88 % 1027,0 hPa #0,0 l/m 6,1 km/h (2 Bft) W-NW - 0,2 C 0,5 C
(c) by David Heller